This demonstration page uses our WeatherBlox Daily Observations layout. Learn more.

Hourly Observations for October 8, 2015

Temp ( °F °C ) Dew Point ( °F °C ) Humidity (%) Winds ( mph kmh ) Pressure ( in mb ) Visibility ( mi km ) Precip ( " mm )
12:15 am 00:15 Clear 59 15.1 56 13.5 90 90 S 6 9 30.03 1017 10 16.0934 0 0
12:35 am 00:35 Clear 59 14.8 56 13.3 91 91 S 6 9 30.03 1017 10 16.0934 0 0
12:55 am 00:55 Clear 58 14.6 56 13.2 91 91 SSW 8 13 30.03 1017 10 16.0934 0 0
1:15 am 01:15 Clear 58 14.4 56 13.1 92 92 SSW 7 11 30.03 1017 7 11.26538 0 0
1:35 am 01:35 Clear 58 14.3 56 13.2 93 93 SSW 7 11 30.03 1017 7 11.26538 0 0
1:55 am 01:55 Clear 58 14.5 56 13.3 93 93 SSW 6 9 30.03 1017 7 11.26538 0 0
2:15 am 02:15 Clear 58 14.5 56 13.3 93 93 SSW 7 11 30.03 1017 7 11.26538 0 0
2:35 am 02:35 Clear 58 14.5 56 13.5 94 94 SSW 8 13 30.03 1017 7 11.26538 0 0
2:55 am 02:55 Clear 58 14.3 56 13.3 94 94 SSW 8 13 30.03 1017 7 11.26538 0 0
3:15 am 03:15 Clear 58 14.4 56 13.4 94 94 SSW 7 11 30.03 1017 7 11.26538 0 0
3:35 am 03:35 Clear 58 14.3 56 13.2 93 93 SSW 7 11 30.03 1017 7 11.26538 0 0
3:55 am 03:55 Clear 57 14.1 55 13 93 93 SW 5 7 30 1016 7 11.26538 0 0
4:15 am 04:15 Clear 57 14 55 13 94 94 SW 7 11 30 1016 7 11.26538 0 0
4:35 am 04:35 Clear 57 14.1 55 13 93 93 SW 7 11 30 1016 10 16.0934 0 0
4:55 am 04:55 Clear 57 14 55 12.9 93 93 SW 5 7 30 1016 10 16.0934 0 0
5:10 am 05:10 Clear 58 14.3 55 13 92 92 SW 5 7 30 1016 10 16.0934 0 0
5:35 am 05:35 Clear 57 14 55 12.5 91 91 SW 5 7 30 1016 10 16.0934 0 0
5:55 am 05:55 Clear 57 13.7 55 12.5 93 93 SW 5 7 30 1016 7 11.26538 0 0
6:15 am 06:15 Clear 56 13.3 54 12.2 93 93 SW 6 9 30 1016 7 11.26538 0 0
6:35 am 06:35 Partly Cloudy 55 13 54 12.1 94 94 Calm 30 1016 7 11.26538 0 0
6:55 am 06:55 Partly Cloudy 55 13 54 12 94 94 SW 3 6 30.06 1018 7 11.26538 0 0
7:15 am 07:15 Clear 55 12.6 53 11.7 94 94 Calm 30.06 1018 7 11.26538 0 0
7:35 am 07:35 Clear with Mist and Fog 53 11.7 52 11 96 96 Calm 30.06 1018 3 4.82802 0 0
7:55 am 07:55 Sunny with Mist and Fog 53 11.9 52 11.1 95 95 Calm 30.06 1018 2.5 4.02335 0 0
8:15 am 08:15 Sunny with Mist and Fog 53 11.8 52 11.1 96 96 Calm 30.06 1018 2.5 4.02335 0 0
8:35 am 08:35 Sunny with Mist and Fog 54 12.3 53 11.6 96 96 Calm 30.06 1018 3 4.82802 0 0
8:55 am 08:55 Sunny with Mist and Fog 56 13.3 55 12.6 96 96 Calm 30.09 1019 5 8.0467 0 0
9:15 am 09:15 Sunny 59 14.8 56 13.5 92 92 Calm 30.06 1018 7 11.26538 0 0
9:35 am 09:35 Sunny 61 16.1 57 13.7 86 86 NNW 5 7 30.06 1018 10 16.0934 0 0
9:55 am 09:55 Sunny 63 17.4 57 13.7 79 79 N 8 13 30.03 1017 10 16.0934 0 0
10:15 am 10:15 Sunny 65 18.6 54 12.4 67 67 NNE 9 15 30.03 1017 10 16.0934 0 0
10:35 am 10:35 Sunny 68 19.8 51 10.8 56 56 NNE 13 20 30.03 1017 10 16.0934 0 0
10:55 am 10:55 Sunny 69 20.8 49 9.6 49 49 NNE 12 19 30.03 1017 10 16.0934 0 0
11:15 am 11:15 Sunny 72 22.2 46 7.6 39 39 NE 15 24 30.03 1017 10 16.0934 0 0
11:35 am 11:35 Sunny 74 23.3 44 6.6 34 34 NNE 13 20 30.03 1017 10 16.0934 0 0
11:55 am 11:55 Sunny 75 23.8 44 6.8 34 34 NNE 14 22 30.03 1017 10 16.0934 0 0
12:15 pm 12:15 Sunny 76 24.6 44 6.4 31 31 NNE 13 20 30 1016 10 16.0934 0 0
12:35 pm 12:35 Sunny 77 24.9 41 5.1 28 28 NNE 12 19 30 1016 10 16.0934 0 0
12:55 pm 12:55 Sunny 75 23.7 41 4.8 29 29 NNE 9 15 30.03 1017 10 16.0934 0 0
1:15 pm 13:15 Sunny 77 25 41 4.9 27 27 NNE 12 19 30 1016 10 16.0934 0 0
1:55 pm 13:55 Sunny 78 25.4 41 5 27 27 NE 16 26 30 1016 10 16.0934 0 0
2:15 pm 14:15 Sunny 77 25.1 41 5.2 28 28 NNE 10 17 29.97 1015 10 16.0934 0 0
2:35 pm 14:35 Sunny 77 25.2 42 5.3 28 28 NNE 10 17 29.97 1015 10 16.0934 0 0
2:55 pm 14:55 Sunny 78 25.3 42 5.3 28 28 NNE 14 22 29.97 1015 10 16.0934 0 0
3:15 pm 15:15 Sunny 77 24.8 40 4.6 27 27 NNE 17 28 29.97 1015 10 16.0934 0 0
3:35 pm 15:35 Sunny 77 24.8 41 5.2 28 28 NNE 14 22 29.97 1015 10 16.0934 0 0
3:55 pm 15:55 Sunny 76 24.5 41 4.8 28 28 N 13 20 29.97 1015 10 16.0934 0 0
4:15 pm 16:15 Sunny 76 24.6 42 5.7 30 30 NNE 15 24 30 1016 10 16.0934 0 0
4:35 pm 16:35 Sunny 75 24 41 5.2 30 30 N 21 33 30.03 1017 10 16.0934 0 0
4:55 pm 16:55 Sunny 72 22.2 42 5.6 34 34 N 21 33 30.03 1017 10 16.0934 0 0
5:15 pm 17:15 Sunny 70 21 42 5.4 36 36 N 18 30 30.03 1017 10 16.0934 0 0
5:35 pm 17:35 Sunny 69 20.5 42 5.8 38 38 N 18 30 30.03 1017 10 16.0934 0 0
5:55 pm 17:55 Partly Cloudy 67 19.5 42 5.7 41 41 NNE 15 24 30.09 1019 10 16.0934 0 0
6:15 pm 18:15 Partly Cloudy 65 18.6 42 5.3 42 42 NNE 21 33 30.09 1019 10 16.0934 0 0
6:35 pm 18:35 Partly Cloudy 65 18.2 43 6 45 45 N 17 28 30.09 1019 10 16.0934 0 0
6:55 pm 18:55 Partly Cloudy 64 17.7 44 6.5 48 48 N 18 30 30.09 1019 10 16.0934 0 0
7:15 pm 19:15 Partly Cloudy 63 17.2 42 5.8 47 47 NNE 22 35 30.15 1021 10 16.0934 0 0
7:35 pm 19:35 Partly Cloudy 62 16.5 42 5.8 49 49 NNE 17 28 30.15 1021 10 16.0934 0 0
7:55 pm 19:55 Partly Cloudy 61 16 44 6.5 54 54 N 14 22 30.15 1021 10 16.0934 0 0
8:15 pm 20:15 Mostly Cloudy 60 15.6 46 7.5 59 59 N 17 28 30.18 1022 10 16.0934 0 0
8:35 pm 20:35 Cloudy with Light Rain 58 14.3 47 8.5 68 68 N 20 31 30.21 1023 10 16.0934 0 0
8:55 pm 20:55 Cloudy with Light Rain 56 13.4 49 9.2 76 76 N 16 26 30.21 1023 10 16.0934 0 0
9:15 pm 21:15 Cloudy with Light Rain 55 12.6 50 10 84 84 N 12 19 30.21 1023 10 16.0934 0 0
9:35 pm 21:35 Cloudy with Light Rain 54 12.2 51 10.3 88 88 N 12 19 30.21 1023 10 16.0934 0 0
9:55 pm 21:55 Cloudy with Light Rain 54 12 51 10.5 91 91 N 9 15 30.21 1023 10 16.0934 0 0
10:15 pm 22:15 Cloudy with Light Rain 54 12 51 10.5 91 91 N 8 13 30.21 1023 10 16.0934 0 0
10:35 pm 22:35 Cloudy with Light Drizzle 53 11.8 51 10.5 92 92 N 13 20 30.21 1023 10 16.0934 0 0
10:55 pm 22:55 Mostly Cloudy 53 11.6 50 10 90 90 N 10 17 30.21 1023 10 16.0934 0 0
11:15 pm 23:15 Partly Cloudy 52 11.2 49 9.6 90 90 N 8 13 30.24 1024 10 16.0934 0 0
11:35 pm 23:35 Mostly Cloudy 52 11.3 50 10 92 92 N 7 11 30.24 1024 10 16.0934 0 0
11:55 pm 23:55 Mostly Cloudy 53 11.5 50 9.9 90 90 NNW 8 13 30.21 1023 10 16.0934 0 0

Powered by AerisWeather